McComb, MS

5:26 AM CST on November 22, 2017 (GMT -0600)
McComb-Pike County-Lewis

Weather History for KMCB - March, 2014

Change the Weather History Date:

Sunday, March 2, 2014

  Actual Average Record
Temperature  
Mean Temperature 68 °F -  
Max Temperature 75 °F 68 °F 82 °F (2004)
Min Temperature 60 °F 45 °F 20 °F (1980)
Cooling Degree Days 2    
Growing Degree Days 18 (Base 50)    
Moisture  
Dew Point 61 °F    
Average Humidity 81    
Maximum Humidity 93    
Minimum Humidity 62    
Precipitation  
Precipitation 0.00 in - - ()
Sea Level Pressure  
Sea Level Pressure 30.04 in    
Wind  
Wind Speed 10 mph (SSE)    
Max Wind Speed 17 mph    
Max Gust Speed 24 mph    
Visibility 10 miles    
Events      
Averages and records for this station are not official NWS values.
T = Trace of Precipitation, MM = Missing Value Source: NWS Daily Summary

Daily Weather History Graph

Daily Weather History Graph

Search for Another Location

Airport or City:

Trip Planner

Search our weather history database for the weather conditions in past years. The results will help you decide how hot, cold, wet, or windy it might be!

Date:

Astronomy

Mar. 02, 2014 Rise Set
Actual Time 6:27 AM CST 6:00 PM CST
Civil Twilight 6:03 AM CST 6:25 PM CST
Nautical Twilight 5:35 AM CST 6:53 PM CST
Astronomical Twilight 5:07 AM CST 7:21 PM CST
Moon 7:06 AM CST (3/2) 7:47 PM CST (3/2)
Length of Visible Light 12h 22m
Length of Day
11h 33m
Waxing Crescent, 3% of the Moon is Illuminated
Mar 2
Waxing Crescent
Mar 8
First Quarter
Mar 16
Full
Mar 23
Last Quarter
Mar 30
New

Hourly Weather History & Observations

Time (CST) Temp. Dew Point Humidity Pressure Visibility Wind Dir Wind Speed Gust Speed Precip Events Conditions
12:53 AM 62.1 °F 60.1 °F 93% 30.09 in 8.0 mi SSE 6.9 mph - N/A   Overcast
1:53 AM 63.0 °F 60.1 °F 90% 30.09 in 9.0 mi SSE 12.7 mph - N/A   Overcast
2:53 AM 62.1 °F 59.0 °F 90% 30.09 in 10.0 mi SSE 10.4 mph - N/A   Overcast
3:42 AM 62.1 °F 59.0 °F 90% 30.11 in 10.0 mi South 6.9 mph - N/A   Overcast
3:53 AM 62.1 °F 59.0 °F 90% 30.10 in 10.0 mi South 8.1 mph - N/A   Overcast
4:53 AM 61.0 °F 57.9 °F 90% 30.10 in 10.0 mi SSE 10.4 mph - N/A   Mostly Cloudy
5:32 AM 61.0 °F 57.9 °F 90% 30.11 in 10.0 mi SSE 8.1 mph - N/A   Overcast
5:53 AM 61.0 °F 57.9 °F 90% 30.11 in 10.0 mi SSE 6.9 mph - N/A   Overcast
6:53 AM 60.1 °F 57.0 °F 90% 30.12 in 10.0 mi SSE 9.2 mph - N/A   Overcast
7:53 AM 61.0 °F 57.9 °F 90% 30.14 in 10.0 mi SSE 6.9 mph - N/A   Overcast
8:53 AM 62.1 °F 59.0 °F 90% 30.15 in 10.0 mi SSE 6.9 mph - N/A   Overcast
9:53 AM 64.0 °F 60.1 °F 87% 30.15 in 10.0 mi SSE 6.9 mph - N/A   Overcast
10:22 AM 64.9 °F 60.1 °F 84% 30.15 in 10.0 mi SSE 9.2 mph - N/A   Overcast
10:36 AM 66.0 °F 60.1 °F 81% 30.15 in 10.0 mi SSE 9.2 mph - N/A   Overcast
10:53 AM 66.0 °F 60.1 °F 81% 30.14 in 10.0 mi SE 6.9 mph - N/A   Overcast
11:53 AM 70.0 °F 61.0 °F 73% 30.12 in 10.0 mi South 10.4 mph - N/A   Overcast
12:28 PM 72.0 °F 61.0 °F 68% 30.11 in 10.0 mi South 9.2 mph 17.3 mph N/A   Overcast
12:43 PM 73.0 °F 61.0 °F 66% 30.10 in 10.0 mi South 10.4 mph - N/A   Overcast
12:53 PM 72.0 °F 61.0 °F 68% 30.08 in 10.0 mi SSE 9.2 mph - N/A   Overcast
1:20 PM 73.0 °F 61.0 °F 66% 30.07 in 10.0 mi SSE 15.0 mph - N/A   Overcast
1:53 PM 73.9 °F 62.1 °F 66% 30.03 in 10.0 mi South 13.8 mph - N/A   Overcast
2:25 PM 75.0 °F 61.0 °F 62% 30.02 in 10.0 mi South 12.7 mph - N/A   Overcast
2:32 PM 73.9 °F 61.0 °F 64% 30.02 in 10.0 mi South 17.3 mph 21.9 mph N/A   Overcast
2:53 PM 75.0 °F 62.1 °F 64% 30.00 in 10.0 mi South 15.0 mph - N/A   Overcast
3:53 PM 75.0 °F 61.0 °F 62% 29.97 in 10.0 mi South 13.8 mph - N/A   Mostly Cloudy
4:53 PM 75.0 °F 62.1 °F 64% 29.95 in 10.0 mi South 12.7 mph - N/A   Partly Cloudy
5:53 PM 72.0 °F 62.1 °F 71% 29.94 in 10.0 mi South 12.7 mph 24.2 mph N/A   Mostly Cloudy
6:53 PM 70.0 °F 62.1 °F 76% 29.95 in 10.0 mi South 11.5 mph 20.7 mph N/A   Overcast
7:53 PM 66.9 °F 63.0 °F 87% 29.95 in 10.0 mi South 11.5 mph - N/A   Clear
8:53 PM 66.0 °F 62.1 °F 87% 29.96 in 10.0 mi South 8.1 mph - N/A   Clear
9:53 PM 64.9 °F 62.1 °F 90% 29.95 in 10.0 mi South 6.9 mph - N/A   Scattered Clouds
10:33 PM 64.9 °F 62.1 °F 90% 29.96 in 10.0 mi South 9.2 mph - N/A   Overcast
10:53 PM 64.9 °F 62.1 °F 90% 29.95 in 10.0 mi South 9.2 mph - N/A   Overcast
11:13 PM 66.0 °F 63.0 °F 90% 29.95 in 10.0 mi South 12.7 mph - N/A   Overcast
11:25 PM 64.9 °F 62.1 °F 90% 29.94 in 10.0 mi South 12.7 mph - N/A   Mostly Cloudy
11:33 PM 64.9 °F 63.0 °F 93% 29.94 in 10.0 mi South 11.5 mph - N/A   Mostly Cloudy
11:42 PM 64.9 °F 63.0 °F 93% 29.94 in 10.0 mi South 11.5 mph - N/A   Mostly Cloudy
11:53 PM 66.0 °F 63.0 °F 90% 29.93 in 10.0 mi South 10.4 mph - N/A   Overcast